Location: Fauquembergues
(50.6005°N, 2.0987°E)
Time: 10:02:47
(UTC+00:00)

H-2A R/B - Pass Details

Date: 14 July 2020
Orbit: 577 x 656 km, 98.5° (Epoch: 05 August)

Event Time Altitude Azimuth Distance (km) Brightness Sun altitude
Rises 02:05:24 0° 131° (SE) 2,921 5.4 -12.5°
Reaches altitude 10° 02:07:52 10° 119° (ESE) 2,004 4.7 -12.3°
Maximum altitude 02:11:29 26° 63° (ENE) 1,222 4.3 -12.0°
Drops below altitude 10° 02:15:03 10° 6° (N) 1,975 5.7 -11.7°
Sets 02:17:28 0° 354° (N) 2,869 6.4 -11.5°
